timestamp,surface_pressure_avg,surface_temp_avg,battery_voltage,lat,long
2023-08-22 00:09:00+00:00,267.2014,18.4,12.17,47.84626,-54.09684
2023-08-22 00:19:00+00:00,274.6414,18.4,12.17,47.84626,-54.09684
2023-08-22 00:29:00+00:00,283.3964,18.4,12.17,47.84626,-54.09684
2023-08-22 00:39:00+00:00,286.2064,18.4,12.17,47.84626,-54.09684
2023-08-22 00:49:00+00:00,286.6813,18.4,12.17,47.84626,-54.09684
2023-08-22 00:59:00+00:00,292.4847,18.4,12.17,47.84626,-54.09684
2023-08-22 01:09:00+00:00,303.2364,18.4,12.17,47.84626,-54.09684
2023-08-22 01:19:00+00:00,308.358,18.4,12.17,47.84626,-54.09684
2023-08-22 01:29:00+00:00,307.9263,18.4,12.17,47.84626,-54.09684
2023-08-22 01:39:00+00:00,312.8314,18.4,12.17,47.84626,-54.09684
2023-08-22 01:49:00+00:00,320.8879,18.4,12.17,47.84626,-54.09684
2023-08-22 01:59:00+00:00,324.0663,18.4,12.17,47.84626,-54.09684
2023-08-22 02:09:00+00:00,321.758,18.4,12.17,47.84626,-54.09684
2023-08-22 02:19:00+00:00,324.6613,18.4,12.17,47.84626,-54.09684
2023-08-22 02:29:00+00:00,328.898,18.4,12.17,47.84626,-54.09684
2023-08-22 02:39:00+00:00,329.1296,18.4,12.17,47.84626,-54.09684
2023-08-22 02:49:00+00:00,329.0346,18.4,12.17,47.84626,-54.09684
2023-08-22 02:59:00+00:00,328.6246,18.4,12.17,47.84626,-54.09684
2023-08-22 03:09:00+00:00,331.6897,18.4,12.17,47.84626,-54.09684
2023-08-22 03:19:00+00:00,332.05800000000005,18.4,12.17,47.84626,-54.09684
2023-08-22 03:29:00+00:00,330.1230000000001,18.4,12.17,47.84626,-54.09684
2023-08-22 03:39:00+00:00,330.673,18.4,12.17,47.84626,-54.09684
2023-08-22 03:49:00+00:00,328.3180000000001,18.4,12.17,47.84626,-54.09684
2023-08-22 03:59:00+00:00,326.3796,18.4,12.17,47.84626,-54.09684
2023-08-22 04:09:00+00:00,322.608,18.4,12.17,47.84626,-54.09684
2023-08-22 04:19:00+00:00,319.9113,18.4,12.17,47.84626,-54.09684
2023-08-22 04:29:00+00:00,317.918,18.4,12.17,47.84626,-54.09684
2023-08-22 04:39:00+00:00,317.7813,18.4,12.17,47.84626,-54.09684
2023-08-22 04:49:00+00:00,316.9963,18.4,12.17,47.84626,-54.09684
2023-08-22 04:59:00+00:00,309.9196,18.4,12.17,47.84626,-54.09684
2023-08-22 05:09:00+00:00,307.1296,18.4,12.17,47.84626,-54.09684
2023-08-22 05:19:00+00:00,307.7563,18.4,12.17,47.84626,-54.09684
2023-08-22 05:29:00+00:00,298.6031,18.4,12.17,47.84626,-54.09684
2023-08-22 05:39:00+00:00,286.3314,18.4,12.17,47.84626,-54.09684
2023-08-22 05:49:00+00:00,281.4031,18.4,12.17,47.84626,-54.09684
2023-08-22 05:59:00+00:00,279.4048,18.4,12.17,47.84626,-54.09684
2023-08-22 06:09:00+00:00,268.7814,18.4,12.17,47.84626,-54.09684
2023-08-22 06:19:01+00:00,259.2631,18.42,12.17,47.84626,-54.09684
2023-08-22 06:29:01+00:00,256.483,18.4,12.17,47.84626,-54.09684
2023-08-22 06:39:01+00:00,254.3164,18.4,12.17,47.84626,-54.09684
2023-08-22 06:49:01+00:00,245.4897,18.4,12.17,47.84626,-54.09684
2023-08-22 06:59:01+00:00,236.3948,18.4,12.17,47.84626,-54.09684
2023-08-22 07:09:01+00:00,231.1247,18.4,12.17,47.84626,-54.09684
2023-08-22 07:19:00+00:00,222.8348,18.4,12.17,47.84626,-54.09684
2023-08-22 07:29:00+00:00,213.2615,18.4,12.17,47.84626,-54.09684
2023-08-22 07:39:00+00:00,207.6615,18.4,12.17,47.84626,-54.09684
2023-08-22 07:49:00+00:00,203.5765,18.4,12.17,47.84626,-54.09684
2023-08-22 07:59:00+00:00,197.4098,18.4,12.17,47.84626,-54.09684
2023-08-22 08:09:00+00:00,192.0697,18.4,12.17,47.84626,-54.09684
2023-08-22 08:19:01+00:00,192.6815,18.4,12.17,47.84626,-54.09684
2023-08-22 08:29:01+00:00,195.1132,18.4,12.17,47.84626,-54.09684
2023-08-22 08:39:01+00:00,192.4114,18.4,12.17,47.84626,-54.09684
2023-08-22 08:49:01+00:00,191.6415,18.4,12.17,47.84626,-54.09684
2023-08-22 08:59:01+00:00,195.2398,18.39,12.17,47.84626,-54.09684
2023-08-22 09:09:01+00:00,198.5014,18.39,12.17,47.84626,-54.09684
2023-08-22 09:19:00+00:00,198.8582,18.39,12.17,47.84626,-54.09684
2023-08-22 09:29:00+00:00,200.7131,18.39,12.17,47.84626,-54.09684
2023-08-22 09:39:00+00:00,204.8598,18.39,12.17,47.84626,-54.09684
2023-08-22 09:49:00+00:00,207.2931,18.38,12.17,47.84626,-54.09684
2023-08-22 09:59:00+00:00,209.8681,18.38,12.17,47.84626,-54.09684
2023-08-22 10:09:00+00:00,214.6164,18.38,12.17,47.84626,-54.09684
2023-08-22 10:19:00+00:00,221.8248,18.39,12.17,47.84626,-54.09684
2023-08-22 10:29:00+00:00,225.5831,18.39,12.17,47.84626,-54.09684
2023-08-22 10:39:00+00:00,227.3514,18.38,12.17,47.84626,-54.09684
2023-08-22 10:49:00+00:00,234.4564,18.39,12.17,47.84626,-54.09684
2023-08-22 10:59:00+00:00,246.1648,18.39,12.17,47.84626,-54.09684
2023-08-22 11:09:00+00:00,251.3647,18.39,12.17,47.84626,-54.09684
2023-08-22 11:19:00+00:00,251.5548,18.39,12.17,47.84626,-54.09684
2023-08-22 11:29:00+00:00,254.3097,18.4,12.17,47.84626,-54.09684
2023-08-22 11:39:00+00:00,259.1947,18.4,12.17,47.84626,-54.09684
2023-08-22 11:49:00+00:00,259.6914,18.4,12.17,47.84626,-54.09684
2023-08-22 11:59:00+00:00,263.2097,18.4,12.17,47.84626,-54.09684
2023-08-22 12:09:00+00:00,267.3397,18.4,12.17,47.84626,-54.09684
2023-08-22 12:19:00+00:00,271.0148,18.4,12.17,47.84626,-54.09684
2023-08-22 12:29:00+00:00,274.9281,18.4,12.17,47.84626,-54.09684
2023-08-22 12:39:00+00:00,283.3997,18.4,12.17,47.84626,-54.09684
2023-08-22 12:49:00+00:00,286.7047,18.4,12.17,47.84626,-54.09684
2023-08-22 12:59:00+00:00,293.0647,18.4,12.17,47.84626,-54.09684
2023-08-22 13:09:00+00:00,301.1364,18.4,12.17,47.84626,-54.09684
2023-08-22 13:19:00+00:00,310.1379,18.4,12.17,47.84626,-54.09684
2023-08-22 13:29:00+00:00,309.9864,18.4,12.17,47.84626,-54.09684
2023-08-22 13:39:00+00:00,311.6197,18.4,12.17,47.84626,-54.09684
2023-08-22 13:49:00+00:00,318.453,18.39,12.17,47.84626,-54.09684
2023-08-22 13:59:00+00:00,323.3713,18.39,12.17,47.84626,-54.09684
2023-08-22 14:09:00+00:00,325.488,18.39,12.17,47.84626,-54.09684
2023-08-22 14:19:01+00:00,333.4414,18.39,12.17,47.84626,-54.09684
2023-08-22 14:29:01+00:00,343.033,18.39,12.17,47.84626,-54.09684
2023-08-22 14:39:01+00:00,342.3596,18.4,12.17,47.84626,-54.09684
2023-08-22 14:49:01+00:00,341.1447,18.4,12.17,47.84626,-54.09684
2023-08-22 14:59:01+00:00,347.2779,18.4,12.17,47.84626,-54.09684
2023-08-22 15:09:01+00:00,344.6746,18.4,12.17,47.84626,-54.09684
2023-08-22 15:19:00+00:00,339.8563,18.4,12.17,47.84626,-54.09684
2023-08-22 15:29:00+00:00,343.8112,18.4,12.17,47.84626,-54.09684
2023-08-22 15:39:00+00:00,344.3746,18.4,12.17,47.84626,-54.09684
2023-08-22 15:49:00+00:00,337.4663,18.4,12.17,47.84626,-54.09684
2023-08-22 15:59:00+00:00,334.9262,18.4,12.17,47.84626,-54.09684
2023-08-22 16:09:00+00:00,337.5813,18.4,12.17,47.84626,-54.09684
2023-08-22 16:19:00+00:00,332.4762,18.4,12.25,47.84626,-54.09684
2023-08-22 16:29:00+00:00,326.8829,18.4,12.25,47.84626,-54.09684
2023-08-22 16:39:00+00:00,327.6813,18.4,12.25,47.84626,-54.09684
2023-08-22 16:49:00+00:00,326.8763,18.4,12.25,47.84626,-54.09684
2023-08-22 16:59:00+00:00,324.5163,18.4,12.25,47.84626,-54.09684
2023-08-22 17:09:00+00:00,327.673,18.4,12.25,47.84626,-54.09684
2023-08-22 17:19:00+00:00,328.4363,18.4,12.17,47.84626,-54.09684
2023-08-22 17:29:00+00:00,322.6846,18.4,12.17,47.84626,-54.09684
2023-08-22 17:39:00+00:00,315.0496,18.4,12.17,47.84626,-54.09684
2023-08-22 17:49:00+00:00,314.1096,18.4,12.17,47.84626,-54.09684
2023-08-22 17:59:00+00:00,307.933,18.4,12.17,47.84626,-54.09684
2023-08-22 18:09:00+00:00,294.4347,18.4,12.17,47.84626,-54.09684
2023-08-22 18:19:00+00:00,286.2113,18.43,12.17,47.84626,-54.09684
2023-08-22 18:29:00+00:00,280.5097,18.43,12.17,47.84626,-54.09684
2023-08-22 18:39:00+00:00,270.8948,18.46,12.17,47.84626,-54.09684
2023-08-22 18:49:00+00:00,262.7248,18.49,12.17,47.84626,-54.09684
2023-08-22 18:59:00+00:00,257.3531,18.49,12.17,47.84626,-54.09684
2023-08-22 19:09:00+00:00,249.2997,18.5,12.17,47.84626,-54.09684
2023-08-22 19:19:00+00:00,241.5648,18.5,12.17,47.84626,-54.09684
2023-08-22 19:29:00+00:00,238.5414,18.5,12.17,47.84626,-54.09684
2023-08-22 19:39:00+00:00,233.6614,18.5,12.17,47.84626,-54.09684
2023-08-22 19:49:00+00:00,224.6381,18.5,12.17,47.84626,-54.09684
2023-08-22 19:59:00+00:00,219.5681,18.5,12.17,47.84626,-54.09684
2023-08-22 20:09:00+00:00,218.0265,18.5,12.17,47.84626,-54.09684
2023-08-22 20:19:00+00:00,212.8948,18.5,12.17,47.84626,-54.09684
2023-08-22 20:29:00+00:00,206.7481,18.54,12.17,47.84626,-54.09684
2023-08-22 20:39:00+00:00,205.4115,18.57,12.17,47.84626,-54.09684
2023-08-22 20:49:00+00:00,204.7465,18.58,12.17,47.84626,-54.09684
2023-08-22 20:59:00+00:00,203.8131,18.59,12.17,47.84626,-54.09684
2023-08-22 21:09:00+00:00,207.9031,18.6,12.17,47.84626,-54.09684
2023-08-22 21:19:01+00:00,214.2581,18.6,12.17,47.84626,-54.09684
2023-08-22 21:29:01+00:00,214.1531,18.6,12.17,47.84626,-54.09684
2023-08-22 21:39:01+00:00,213.0998,18.6,12.17,47.84626,-54.09684
2023-08-22 21:49:01+00:00,216.4431,18.6,12.17,47.84626,-54.09684
2023-08-22 21:59:01+00:00,216.2398,18.6,12.17,47.84626,-54.09684
2023-08-22 22:09:01+00:00,217.9631,18.6,12.17,47.84626,-54.09684
2023-08-22 22:19:00+00:00,224.4098,18.6,12.17,47.84626,-54.09684
2023-08-22 22:29:00+00:00,227.6598,18.6,12.17,47.84626,-54.09684
2023-08-22 22:39:00+00:00,227.9547,18.6,12.17,47.84626,-54.09684
2023-08-22 22:49:00+00:00,233.7648,18.6,12.17,47.84626,-54.09684
2023-08-22 22:59:00+00:00,240.998,18.6,12.17,47.84626,-54.09684
2023-08-22 23:09:00+00:00,240.7231,18.6,12.17,47.84626,-54.09684
2023-08-22 23:19:00+00:00,242.5198,18.6,12.17,47.84626,-54.09684
2023-08-22 23:29:00+00:00,252.6864,18.6,12.17,47.84626,-54.09684
2023-08-22 23:39:00+00:00,256.7381,18.6,12.17,47.84626,-54.09684
2023-08-22 23:49:00+00:00,255.4214,18.6,12.17,47.84626,-54.09684
2023-08-22 23:59:00+00:00,256.2281,18.6,12.17,47.84626,-54.09684
